Regional Weather Roundup
Issued by NWS Upton, NY

Current Version | Previous Version | Graphics & Text | Print | Product List | Glossary Off
Versions: 1 2 3 4 5 6 7 8 9 10 11 12 13 14 15 16 17 18 19 20 21 22 23 24 25 26 27 28 29 30 31 32 33 34 35 36 37 38 39 40 41 42 43 44 45
000 ASUS41 KOKX 252205 RWROKX REGIONAL WEATHER ROUNDUP NATIONAL WEATHER SERVICE NEW YORK NY 500 PM EST THU DEC 25 2014 NOTE: "FAIR" INDICATES FEW OR NO CLOUDS BELOW 12,000 FEET WITH NO SIGNIFICANT WEATHER AND/OR OBSTRUCTIONS TO VISIBILITY. NYZ071-072-176-178-NJZ106-104-252300- NEW YORK CITY METRO AREA CITY SKY/WX TMP DP RH WIND PRES REMARKS CENTRAL PARK PTCLDY 50 28 42 VRB6G22 29.95R LAGUARDIA APRT PTCLDY 50 29 44 W15G25 29.93R KENNEDY INTL PTCLDY 50 28 42 W14G24 29.94R NEWARK/LIBERTY MOCLDY 49 30 48 W14G23 29.95R BRNX BOT. GARD N/A N/A N/A N/A NW10 29.92F TETERBORO MOCLDY 50 29 44 W13G20 29.93R $$ NYZ177-179-078>081-252300- LONG ISLAND NEW YORK CITY SKY/WX TMP DP RH WIND PRES REMARKS FARMINGDALE PTCLDY 49 28 44 NW10G17 29.92R ISLIP PTCLDY 49 28 44 W17 29.89R SHIRLEY CLEAR 49 28 44 W14G22 29.90R WESTHAMPTON CLEAR 47 29 49 W8 29.91R MONTAUK POINT N/A 49 33 54 W15G22 29.87R $$ NYZ052-065-067-252300- HUDSON VALLEY CITY SKY/WX TMP DP RH WIND PRES REMARKS WHITE PLAINS MOCLDY 47 27 45 W17G26 29.90R NEWBURGH MOCLDY 48 30 49 W16G25 29.91R MONTGOMERY CLOUDY 48 28 46 W16G22 29.90R POUGHKEEPSIE CLOUDY 49 27 42 W15 29.91R ALBANY CLOUDY 47 28 47 W16G22 29.86R $$ NJZ001-105-106-008-010-013-015-019>022-104-252300- NEW JERSEY CITY SKY/WX TMP DP RH WIND PRES REMARKS NEWARK/LIBERTY MOCLDY 49 30 48 W14G23 29.95R TETERBORO MOCLDY 50 29 44 W13G20 29.93R CALDWELL PTCLDY 48 29 47 W9 29.94R MORRISTOWN MOCLDY 50 32 50 W12G24 29.95R SOMERVILLE CLEAR 49 28 44 W7G17 29.95R SUSSEX CLOUDY 47 29 49 SW6 29.94R ANDOVER NOT AVBL TRENTON PTCLDY 48 28 46 W14G23 29.98R MILLVILLE CLEAR 48 31 51 W9 30.03R ATLANTIC CITY CLEAR 48 30 49 W13 30.01R WRIGHTSTOWN PTCLDY 48 31 52 W10G21 29.97R TOMS RIVER PTCLDY 48 30 49 W12G18 29.99R BELMAR PTCLDY 48 28 46 W13G21 29.97R $$ PAZ047>061-062-071-252300- EASTERN PENNSYLVANIA CITY SKY/WX TMP DP RH WIND PRES REMARKS PHILADELPHIA PTCLDY 51 29 42 W10 30.02R ALLENTOWN CLOUDY 48 30 49 W13 29.99R SCRANTON CLOUDY 44 30 57 W14 29.97R $$ CTZ002-004>006-009-010-012-RIZ004-006-007-MAZ004-011-015-252300- SOUTHERN NEW ENGLAND IN CT CITY SKY/WX TMP DP RH WIND PRES REMARKS BRADLEY INTL PTCLDY 49 27 42 W12 29.84R HARTFORD CLOUDY 49 28 44 W14 29.86R DANBURY PTCLDY 47 25 42 W17G31 29.89R WTRBRY/OXFORD PTCLDY 46 27 46 NW9G23 29.86R BRIDGEPORT PTCLDY 49 30 48 W12 29.89R MERIDEN PTCLDY 48 28 46 W8G20 29.87R NEW HAVEN PTCLDY 51 30 44 W13G23 29.88R CHESTER FAIR 46 30 53 W8 29.86R GROTON CLEAR 48 29 47 W9 29.85R WILLIMANTIC MOCLDY 49 27 42 W10 29.83R IN RI CITY SKY/WX TMP DP RH WIND PRES REMARKS PROVIDENCE PTCLDY 49 27 42 W13G21 29.80R BLOCK ISLAND CLEAR 48 34 57 W10G16 29.84R WESTERLY CLEAR 49 29 46 W8 29.84R IN MA CITY SKY/WX TMP DP RH WIND PRES REMARKS BOSTON PTCLDY 47 30 51 W16G25 29.75R WORCESTER PTCLDY 43 28 55 W20G28 29.76R WESTFIELD CLOUDY 48 28 46 VRB7 29.83R PROVINCETOWN PTCLDY 48 36 61 W18 29.77R NANTUCKET FAIR 48 40 73 W14 29.79R $$ ANZ330-335-338-340-345-350-353-355-252300- COASTAL MARINE OBSERVATIONS STATION/POSITION TIME SKY/WX TEMP WIND PRES VSBY WAVE AIR SEA DIR/SP/G HT/PER (UTC) (F) (DEG/KT/KT) (MB) (MI) (FT/S) NY HARB ENTRANCE 2200 49 46 290/ 19/ 23 1014.7 4/ 8 4S FIRE IS 2200 47 N/A 5/ 9 20S FIRE ISLAND 2100 49 49 1012.2 7/ 8 23SW MTP 2200 N/A 7/ 8 HUDSON CANYON 2200 51 55 300/ 25/ 31 1013.5 EXECUTION ROCKS 2200 49 42 300/ 14/ 23 N/A WESTERN LI SOUND 2200 49 280/ 17/ 23 N/A 2/ 2 CENTRAL LI SOUND 2100 48 44 270/ 19/ 25 N/A 4/ 4 EASTERN LI SOUND NOT AVBL ROBBINS REEF 2200 49 1012.7 $$ >>>>>>>>>>>>>>>>>>>>>>>>>>>> KEY <<<<<<<<<<<<<<<<<<<<<<<<<<< > < > SKY/WX - SKY CONDITION/PRESENT WEATHER < > TMP - TEMPERATURE IN FAHRENHEIT < > DP - DEWPOINT IN FAHRENHEIT < > RH - RELATIVE HUMIDITY IN PERCENT < > WIND - DIRECTION AND SPEED IN MPH < > PRES - MEAN SEA LEVEL PRESSURE IN INCHES OF HG < > WCI - WIND CHILL INDEX < > VSB - VISIBILITY IN MILES < > HX - HEAT INDEX < > TC - TEMPERATURE IN CELSIUS < > VRB - VARIABLE WIND DIRECTION < > < >>>>>>>>>>>>>>>>>>>>>>>>>>>> KEY <<<<<<<<<<<<<<<<<<<<<<<<<<<

USA.gov is the U.S. government's official web portal to all federal, state and local government web resources and services.